Weather in Tacloban

Philippines     11°13′45″N   124°59′53″E
temp.,
°C
wind,
m/s
gust,
m/s
humid.,
%
clouds,
%
prec.,
mm/h
press.,
hPa
HPBL,
m
11 may, tue
tue1123:00+26e1190100 0.5 101172
02:00+25ese119095 1.9 1009100
05:00+25ne119280 0.4 100968
08:00+27e1483100 0.4 1010390
11:00+30se4566100 0.1 1009982
14:00+30ese4571100 0.6 1007718
17:00+28e2581100 0.6 1008497
20:00+26e238995 1.4 1010211
12 may, wed
wed1223:00+26e23908 0.4 1010211
02:00+25e129180 1.2 1009148
05:00+25ese1292100 0.4 1009128
08:00+28ese2580100 0.5 1011673
11:00+30sse456625 0.5 10091013
14:00+30sse456932 1.3 1007628
17:00+29ese367761 0.8 1007307
20:00+26e248889 1.1 1010182
13 may, thu
thu1323:00+25ene129194 0.1 1010157
02:00+24nnw119495 0.2 100882
05:00+24nnw119526 0.3 100893
08:00+28ene247717 0.3 1009613
11:00+31ese356320 1.1 10081012
14:00+32se346030 2.3 1006946
17:00+29ese24735 0.7 1006347
20:00+26ne24886 0.9 1008200
14 may, fri
fri1423:00+25ne23919 1.2 1008170
02:00+24nnw129410 2.7 1007108
05:00+24nnw119419 0.2 1007126
08:00+27ene258272 0.4 1008658
11:00+28e368540 5.1 1007766
14:00+28e3688100 13.0 1005596
17:00+26e369198 7.8 1006389
20:00+25e359298 10.8 1008314
15 may, sat
sat1523:00+25e3592100 4.0 1008297
02:00+25e3594100 9.9 1007274
05:00+25e3791100 3.9 1008390
08:00+25ese51193100 9.0 1009710
11:00+25ese51094100 9.2 1009762
14:00+25se4893100 14.2 1007598
17:00+25sse3692100 1.4 1008458
20:00+25ese4994100 5.4 1009580